Simultaneous Nadir Overpasses (SNOs) Predictions

Prediction of SNOs between LANDSAT-8 and METOP-B Satellite Orbit:

Table of predicted SNOs for the next 14.0 days since TLE Epoch: 9/23/2023
Index Date (LANDSAT-8) Time (LANDSAT-8) Lat,Lon (LANDSAT-8) SZA (LANDSAT-8 ) Date (METOP-B) Time (METOP-B) Lat,Lon (METOP-B) SZA (METOP-B ) Distance(km) Time Diff (sec)
1 09/25/2023 07:12:53 -81.23, -66.53 95.58 09/25/2023 07:11:57 -81.22, -66.67 95.63 2.39 56
2 09/25/2023 08:02:19 81.24, 101.22 84.45 09/25/2023 08:02:36 81.24, 101.30 84.47 1.51 17
3 09/28/2023 02:47:10 -81.22, -0.23 94.49 09/28/2023 02:46:18 -81.23, -0.16 94.50 1.34 52
4 09/28/2023 03:36:35 81.25, 167.86 85.60 09/28/2023 03:36:57 81.24, 167.78 85.60 1.53 22
5 09/30/2023 22:21:25 -81.24, 66.55 93.32 09/30/2023 22:20:38 -81.24, 66.63 93.34 1.39 47
6 09/30/2023 23:10:51 81.24,-125.76 86.70 09/30/2023 23:11:18 81.24,-125.84 86.71 1.44 27
7 10/03/2023 17:55:40 -81.22, 132.70 92.26 10/03/2023 17:54:59 -81.22, 132.56 92.29 2.31 41
8 10/03/2023 18:45:05 81.25, -59.26 87.82 10/03/2023 18:45:37 81.25, -59.17 87.85 1.66 32
9 10/06/2023 13:29:54 -81.23,-160.67 91.13 10/06/2023 13:29:19 -81.23,-160.84 91.17 2.82 35



Historial Predications of SNOs between LANDSAT-8 and METOP-B
